Year,Month,Day,Hour,Minute,Value (Times are PST for temperature in C)
2013,08,25,00,00,13.80
2013,08,25,00,01,13.80
2013,08,25,00,02,13.80
2013,08,25,00,03,13.70
2013,08,25,00,04,13.70
2013,08,25,00,05,13.70
2013,08,25,00,06,13.70
2013,08,25,00,07,13.60
2013,08,25,00,08,13.60
2013,08,25,00,09,13.60
2013,08,25,00,10,13.50
2013,08,25,00,11,13.50
2013,08,25,00,12,13.50
2013,08,25,00,13,13.40
2013,08,25,00,14,13.40
2013,08,25,00,15,13.40
2013,08,25,00,16,13.30
2013,08,25,00,17,13.30
2013,08,25,00,18,13.30
2013,08,25,00,19,13.30
2013,08,25,00,20,13.30
2013,08,25,00,21,13.20
2013,08,25,00,22,13.20
2013,08,25,00,23,13.20
2013,08,25,00,24,13.20
2013,08,25,00,25,13.20
2013,08,25,00,26,13.10
2013,08,25,00,27,13.10
2013,08,25,00,28,13.10
2013,08,25,00,29,13.10
2013,08,25,00,30,13.00
2013,08,25,00,31,13.00
2013,08,25,00,32,13.00
2013,08,25,00,33,13.00
2013,08,25,00,34,13.00
2013,08,25,00,35,12.90
2013,08,25,00,36,12.90
2013,08,25,00,37,12.90
2013,08,25,00,38,12.90
2013,08,25,00,39,12.80
2013,08,25,00,40,12.80
2013,08,25,00,41,12.80
2013,08,25,00,42,12.80
2013,08,25,00,43,12.80
2013,08,25,00,44,12.80
2013,08,25,00,45,12.80
2013,08,25,00,46,12.80
2013,08,25,00,47,12.70
2013,08,25,00,48,12.70
2013,08,25,00,49,12.70
2013,08,25,00,50,12.60
2013,08,25,00,51,12.60
2013,08,25,00,52,12.60
2013,08,25,00,53,12.60
2013,08,25,00,54,12.60
2013,08,25,00,55,12.50
2013,08,25,00,56,12.50
2013,08,25,00,57,12.50
2013,08,25,00,58,12.50
2013,08,25,00,59,12.50
2013,08,25,01,00,12.50
2013,08,25,01,01,12.50
2013,08,25,01,02,12.50
2013,08,25,01,03,12.50
2013,08,25,01,04,12.50
2013,08,25,01,05,12.50
2013,08,25,01,06,12.50
2013,08,25,01,07,12.50
2013,08,25,01,08,12.50
2013,08,25,01,09,12.40
2013,08,25,01,10,12.40
2013,08,25,01,11,12.40
2013,08,25,01,12,12.40
2013,08,25,01,13,12.40
2013,08,25,01,14,12.40
2013,08,25,01,15,12.40
2013,08,25,01,16,12.40
2013,08,25,01,17,12.40
2013,08,25,01,18,12.40
2013,08,25,01,19,12.30
2013,08,25,01,20,12.30
2013,08,25,01,21,12.30
2013,08,25,01,22,12.30
2013,08,25,01,23,12.30
2013,08,25,01,24,12.30
2013,08,25,01,25,12.30
2013,08,25,01,26,12.30
2013,08,25,01,27,12.30
2013,08,25,01,28,12.20
2013,08,25,01,29,12.20
2013,08,25,01,30,12.20
2013,08,25,01,31,12.20
2013,08,25,01,32,12.20
2013,08,25,01,33,12.20
2013,08,25,01,34,12.20
2013,08,25,01,35,12.20
2013,08,25,01,36,12.20
2013,08,25,01,37,12.10
2013,08,25,01,38,12.10
2013,08,25,01,39,12.10
2013,08,25,01,40,12.10
2013,08,25,01,41,12.10
2013,08,25,01,42,12.10
2013,08,25,01,43,12.00
2013,08,25,01,44,12.00
2013,08,25,01,45,12.10
2013,08,25,01,46,12.10
2013,08,25,01,47,12.10
2013,08,25,01,48,12.00
2013,08,25,01,49,12.00
2013,08,25,01,50,12.00
2013,08,25,01,51,12.00
2013,08,25,01,52,12.00
2013,08,25,01,53,12.00
2013,08,25,01,54,12.00
2013,08,25,01,55,12.00
2013,08,25,01,56,12.00
2013,08,25,01,57,12.00
2013,08,25,01,58,12.00
2013,08,25,01,59,12.00
2013,08,25,02,00,12.00
2013,08,25,02,01,12.00
2013,08,25,02,02,12.00
2013,08,25,02,03,12.00
2013,08,25,02,04,12.00
2013,08,25,02,05,12.00
2013,08,25,02,06,12.00
2013,08,25,02,07,11.90
2013,08,25,02,08,11.90
2013,08,25,02,09,11.90
2013,08,25,02,10,11.90
2013,08,25,02,11,11.90
2013,08,25,02,12,11.90
2013,08,25,02,13,11.90
2013,08,25,02,14,11.90
2013,08,25,02,15,11.90
2013,08,25,02,16,11.90
2013,08,25,02,17,11.90
2013,08,25,02,18,11.90
2013,08,25,02,19,11.90
2013,08,25,02,20,11.80
2013,08,25,02,21,11.80
2013,08,25,02,22,11.80
2013,08,25,02,23,11.80
2013,08,25,02,24,11.80
2013,08,25,02,25,11.80
2013,08,25,02,26,11.80
2013,08,25,02,27,11.70
2013,08,25,02,28,11.70
2013,08,25,02,29,11.70
2013,08,25,02,30,11.70
2013,08,25,02,31,11.70
2013,08,25,02,32,11.70
2013,08,25,02,33,11.60
2013,08,25,02,34,11.60
2013,08,25,02,35,11.60
2013,08,25,02,36,11.60
2013,08,25,02,37,11.60
2013,08,25,02,38,11.60
2013,08,25,02,39,11.60
2013,08,25,02,40,11.60
2013,08,25,02,41,11.60
2013,08,25,02,42,11.60
2013,08,25,02,43,11.60
2013,08,25,02,44,11.60
2013,08,25,02,45,11.60
2013,08,25,02,46,11.60
2013,08,25,02,47,11.60
2013,08,25,02,48,11.60
2013,08,25,02,49,11.50
2013,08,25,02,50,11.40
2013,08,25,02,51,11.40
2013,08,25,02,52,11.40
2013,08,25,02,53,11.40
2013,08,25,02,54,11.40
2013,08,25,02,55,11.40
2013,08,25,02,56,11.40
2013,08,25,02,57,11.40
2013,08,25,02,58,11.30
2013,08,25,02,59,11.30
2013,08,25,03,00,11.30
2013,08,25,03,01,11.30
2013,08,25,03,02,11.30
2013,08,25,03,03,11.30
2013,08,25,03,04,11.30
2013,08,25,03,05,11.30
2013,08,25,03,06,11.30
2013,08,25,03,07,11.30
2013,08,25,03,08,11.30
2013,08,25,03,09,11.30
2013,08,25,03,10,11.30
2013,08,25,03,11,11.30
2013,08,25,03,12,11.30
2013,08,25,03,13,11.30
2013,08,25,03,14,11.30
2013,08,25,03,15,11.30
2013,08,25,03,16,11.20
2013,08,25,03,17,11.30
2013,08,25,03,18,11.30
2013,08,25,03,19,11.30
2013,08,25,03,20,11.30
2013,08,25,03,21,11.30
2013,08,25,03,22,11.30
2013,08,25,03,23,11.30
2013,08,25,03,24,11.30
2013,08,25,03,25,11.30
2013,08,25,03,26,11.30
2013,08,25,03,27,11.30
2013,08,25,03,28,11.20
2013,08,25,03,29,11.20
2013,08,25,03,30,11.20
2013,08,25,03,31,11.20
2013,08,25,03,32,11.20
2013,08,25,03,33,11.20
2013,08,25,03,34,11.20
2013,08,25,03,35,11.10
2013,08,25,03,36,11.10
2013,08,25,03,37,11.10
2013,08,25,03,38,11.10
2013,08,25,03,39,11.10
2013,08,25,03,40,11.20
2013,08,25,03,41,11.20
2013,08,25,03,42,11.20
2013,08,25,03,43,11.20
2013,08,25,03,44,11.20
2013,08,25,03,45,11.20
2013,08,25,03,46,11.20
2013,08,25,03,47,11.20
2013,08,25,03,48,11.20
2013,08,25,03,49,11.20
2013,08,25,03,50,11.30
2013,08,25,03,51,11.30
2013,08,25,03,52,11.30
2013,08,25,03,53,11.30
2013,08,25,03,54,11.30
2013,08,25,03,55,11.30
2013,08,25,03,56,11.30
2013,08,25,03,57,11.30
2013,08,25,03,58,11.30
2013,08,25,03,59,11.30
2013,08,25,04,00,11.30
2013,08,25,04,01,11.30
2013,08,25,04,02,11.30
2013,08,25,04,03,11.20
2013,08,25,04,04,11.20
2013,08,25,04,05,11.20
2013,08,25,04,06,11.20
2013,08,25,04,07,11.20
2013,08,25,04,08,11.10
2013,08,25,04,09,11.10
2013,08,25,04,10,11.10
2013,08,25,04,11,11.10
2013,08,25,04,12,11.10
2013,08,25,04,13,11.10
2013,08,25,04,14,11.10
2013,08,25,04,15,11.10
2013,08,25,04,16,11.10
2013,08,25,04,17,11.10
2013,08,25,04,18,11.10
2013,08,25,04,19,11.10
2013,08,25,04,20,11.10
2013,08,25,04,21,11.10
2013,08,25,04,22,11.10
2013,08,25,04,23,11.10
2013,08,25,04,24,11.10
2013,08,25,04,25,11.10
2013,08,25,04,26,11.20
2013,08,25,04,27,11.20
2013,08,25,04,28,11.20
2013,08,25,04,29,11.20
2013,08,25,04,30,11.20
2013,08,25,04,31,11.10
2013,08,25,04,32,11.10
2013,08,25,04,33,11.20
2013,08,25,04,34,11.20
2013,08,25,04,35,11.20
2013,08,25,04,36,11.20
2013,08,25,04,37,11.20
2013,08,25,04,38,11.20
2013,08,25,04,39,11.20
2013,08,25,04,40,11.30
2013,08,25,04,41,11.30
2013,08,25,04,42,11.30
2013,08,25,04,43,11.30
2013,08,25,04,44,11.30
2013,08,25,04,45,11.40
2013,08,25,04,46,11.40
2013,08,25,04,47,11.40
2013,08,25,04,48,11.40
2013,08,25,04,49,11.40
2013,08,25,04,50,11.50
2013,08,25,04,51,11.60
2013,08,25,04,52,11.60
2013,08,25,04,53,11.60
2013,08,25,04,54,11.60
2013,08,25,04,55,11.60
2013,08,25,04,56,11.60
2013,08,25,04,57,11.70
2013,08,25,04,58,11.70
2013,08,25,04,59,11.70
2013,08,25,05,00,11.70
2013,08,25,05,01,11.70
2013,08,25,05,02,11.80
2013,08,25,05,03,11.80
2013,08,25,05,04,11.80
2013,08,25,05,05,11.80
2013,08,25,05,06,11.80
2013,08,25,05,07,11.80
2013,08,25,05,08,11.90
2013,08,25,05,09,11.90
2013,08,25,05,10,11.90
2013,08,25,05,11,11.90
2013,08,25,05,12,11.90
2013,08,25,05,13,12.00
2013,08,25,05,14,12.00
2013,08,25,05,15,12.00
2013,08,25,05,16,12.00
2013,08,25,05,17,12.00
2013,08,25,05,18,12.00
2013,08,25,05,19,12.00
2013,08,25,05,20,12.00
2013,08,25,05,21,12.00
2013,08,25,05,22,12.00
2013,08,25,05,23,12.00
2013,08,25,05,24,12.00
2013,08,25,05,25,12.00
2013,08,25,05,26,12.00
2013,08,25,05,27,12.00
2013,08,25,05,28,12.00
2013,08,25,05,29,12.00
2013,08,25,05,30,12.00
2013,08,25,05,31,12.00
2013,08,25,05,32,11.90
2013,08,25,05,33,11.90
2013,08,25,05,34,11.90
2013,08,25,05,35,11.90
2013,08,25,05,36,11.90
2013,08,25,05,37,11.80
2013,08,25,05,38,11.80
2013,08,25,05,39,11.80
2013,08,25,05,40,11.80
2013,08,25,05,41,11.80
2013,08,25,05,42,11.80
2013,08,25,05,43,11.80
2013,08,25,05,44,11.80
2013,08,25,05,45,11.80
2013,08,25,05,46,11.80
2013,08,25,05,47,11.80
2013,08,25,05,48,11.80
2013,08,25,05,49,11.80
2013,08,25,05,50,11.90
2013,08,25,05,51,11.90
2013,08,25,05,52,11.80
2013,08,25,05,53,11.80
2013,08,25,05,54,11.80
2013,08,25,05,55,11.80
2013,08,25,05,56,11.80
2013,08,25,05,57,11.80
2013,08,25,05,58,11.80
2013,08,25,05,59,11.80
2013,08,25,06,00,11.70
2013,08,25,06,01,11.70
2013,08,25,06,02,11.70
2013,08,25,06,03,11.70
2013,08,25,06,04,11.60
2013,08,25,06,05,11.60
2013,08,25,06,06,11.60
2013,08,25,06,07,11.60
2013,08,25,06,08,11.60
2013,08,25,06,09,11.50
2013,08,25,06,10,11.40
2013,08,25,06,11,11.40
2013,08,25,06,12,11.40
2013,08,25,06,13,11.40
2013,08,25,06,14,11.40
2013,08,25,06,15,11.40
2013,08,25,06,16,11.30
2013,08,25,06,17,11.30
2013,08,25,06,18,11.30
2013,08,25,06,19,11.30
2013,08,25,06,20,11.30
2013,08,25,06,21,11.30
2013,08,25,06,22,11.30
2013,08,25,06,23,11.30
2013,08,25,06,24,11.30
2013,08,25,06,25,11.30
2013,08,25,06,26,11.30
2013,08,25,06,27,11.30
2013,08,25,06,28,11.30
2013,08,25,06,29,11.30
2013,08,25,06,30,11.30
2013,08,25,06,31,11.30
2013,08,25,06,32,11.30
2013,08,25,06,33,11.30
2013,08,25,06,34,11.30
2013,08,25,06,35,11.30
2013,08,25,06,36,11.30
2013,08,25,06,37,11.30
2013,08,25,06,38,11.30
2013,08,25,06,39,11.30
2013,08,25,06,40,11.30
2013,08,25,06,41,11.30
2013,08,25,06,42,11.30
2013,08,25,06,43,11.30
2013,08,25,06,44,11.30
2013,08,25,06,45,11.20
2013,08,25,06,46,11.20
2013,08,25,06,47,11.20
2013,08,25,06,48,11.20
2013,08,25,06,49,11.20
2013,08,25,06,50,11.20
2013,08,25,06,51,11.20
2013,08,25,06,52,11.20
2013,08,25,06,53,11.30
2013,08,25,06,54,11.30
2013,08,25,06,55,11.30
2013,08,25,06,56,11.30
2013,08,25,06,57,11.30
2013,08,25,06,58,11.30
2013,08,25,06,59,11.30
2013,08,25,07,00,11.40
2013,08,25,07,01,11.40
2013,08,25,07,02,11.40
2013,08,25,07,03,11.50
2013,08,25,07,04,11.60
2013,08,25,07,05,11.70
2013,08,25,07,06,11.80
2013,08,25,07,07,11.80
2013,08,25,07,08,11.90
2013,08,25,07,09,11.90
2013,08,25,07,10,11.90
2013,08,25,07,11,11.90
2013,08,25,07,12,12.00
2013,08,25,07,13,12.00
2013,08,25,07,14,12.00
2013,08,25,07,15,12.00
2013,08,25,07,16,12.00
2013,08,25,07,17,12.10
2013,08,25,07,18,12.20
2013,08,25,07,19,12.20
2013,08,25,07,20,12.20
2013,08,25,07,21,12.30
2013,08,25,07,22,12.30
2013,08,25,07,23,12.40
2013,08,25,07,24,12.40
2013,08,25,07,25,12.50
2013,08,25,07,26,12.60
2013,08,25,07,27,12.60
2013,08,25,07,28,12.70
2013,08,25,07,29,12.70
2013,08,25,07,30,12.80
2013,08,25,07,31,12.80
2013,08,25,07,32,12.80
2013,08,25,07,33,12.80
2013,08,25,07,34,12.80
2013,08,25,07,35,12.80
2013,08,25,07,36,12.80
2013,08,25,07,37,12.90
2013,08,25,07,38,12.90
2013,08,25,07,39,13.00
2013,08,25,07,40,13.10
2013,08,25,07,41,13.10
2013,08,25,07,42,13.20
2013,08,25,07,43,13.20
2013,08,25,07,44,13.30
2013,08,25,07,45,13.30
2013,08,25,07,46,13.30
2013,08,25,07,47,13.40
2013,08,25,07,48,13.50
2013,08,25,07,49,13.50
2013,08,25,07,50,13.60
2013,08,25,07,51,13.70
2013,08,25,07,52,13.70
2013,08,25,07,53,13.80
2013,08,25,07,54,13.80
2013,08,25,07,55,13.90
2013,08,25,07,56,13.90
2013,08,25,07,57,14.00
2013,08,25,07,58,14.10
2013,08,25,07,59,14.20
2013,08,25,08,00,14.20
2013,08,25,08,01,14.20
2013,08,25,08,02,14.30
2013,08,25,08,03,14.40
2013,08,25,08,04,14.40
2013,08,25,08,05,14.50
2013,08,25,08,06,14.50
2013,08,25,08,07,14.60
2013,08,25,08,08,14.60
2013,08,25,08,09,14.60
2013,08,25,08,10,14.70
2013,08,25,08,11,14.70
2013,08,25,08,12,14.70
2013,08,25,08,13,14.70
2013,08,25,08,14,14.80
2013,08,25,08,15,14.80
2013,08,25,08,16,14.80
2013,08,25,08,17,14.80
2013,08,25,08,18,14.80
2013,08,25,08,19,14.90
2013,08,25,08,20,15.00
2013,08,25,08,21,15.20
2013,08,25,08,22,15.30
2013,08,25,08,23,15.40
2013,08,25,08,24,15.50
2013,08,25,08,25,15.60
2013,08,25,08,26,15.70
2013,08,25,08,27,15.80
2013,08,25,08,28,15.80
2013,08,25,08,29,15.90
2013,08,25,08,30,15.90
2013,08,25,08,31,16.10
2013,08,25,08,32,16.10
2013,08,25,08,33,16.10
2013,08,25,08,34,16.10
2013,08,25,08,35,16.20
2013,08,25,08,36,16.30
2013,08,25,08,37,16.30
2013,08,25,08,38,16.40
2013,08,25,08,39,16.40
2013,08,25,08,40,16.50
2013,08,25,08,41,16.60
2013,08,25,08,42,16.70
2013,08,25,08,43,16.70
2013,08,25,08,44,16.80
2013,08,25,08,45,16.90
2013,08,25,08,46,16.90
2013,08,25,08,47,17.00
2013,08,25,08,48,17.00
2013,08,25,08,49,17.00
2013,08,25,08,50,16.90
2013,08,25,08,51,16.90
2013,08,25,08,52,16.90
2013,08,25,08,53,17.00
2013,08,25,08,54,17.00
2013,08,25,08,55,17.10
2013,08,25,08,56,17.20
2013,08,25,08,57,17.20
2013,08,25,08,58,17.30
2013,08,25,08,59,17.30
2013,08,25,09,00,17.30
2013,08,25,09,01,17.40
2013,08,25,09,02,17.40
2013,08,25,09,03,17.50
2013,08,25,09,04,17.50
2013,08,25,09,05,17.50
2013,08,25,09,06,17.60
2013,08,25,09,07,17.60
2013,08,25,09,08,17.60
2013,08,25,09,09,17.60
2013,08,25,09,10,17.60
2013,08,25,09,11,17.70
2013,08,25,09,12,17.70
2013,08,25,09,13,17.70
2013,08,25,09,14,17.70
2013,08,25,09,15,17.70
2013,08,25,09,16,17.70
2013,08,25,09,17,17.60
2013,08,25,09,18,17.60
2013,08,25,09,19,17.60
2013,08,25,09,20,17.60
2013,08,25,09,21,17.60
2013,08,25,09,22,17.70
2013,08,25,09,23,17.70
2013,08,25,09,24,17.70
2013,08,25,09,25,17.70
2013,08,25,09,26,17.80
2013,08,25,09,27,17.80
2013,08,25,09,28,17.90
2013,08,25,09,29,17.90
2013,08,25,09,30,17.90
2013,08,25,09,31,17.90
2013,08,25,09,32,17.90
2013,08,25,09,33,17.90
2013,08,25,09,34,17.90
2013,08,25,09,35,17.90
2013,08,25,09,36,17.90
2013,08,25,09,37,17.90
2013,08,25,09,38,17.90
2013,08,25,09,39,18.10
2013,08,25,09,40,18.10
2013,08,25,09,41,18.10
2013,08,25,09,42,18.10
2013,08,25,09,43,18.20
2013,08,25,09,44,18.20
2013,08,25,09,45,18.20
2013,08,25,09,46,18.20
2013,08,25,09,47,18.20
2013,08,25,09,48,18.20
2013,08,25,09,49,18.20
2013,08,25,09,50,18.20
2013,08,25,09,51,18.20
2013,08,25,09,52,18.20
2013,08,25,09,53,18.10
2013,08,25,09,54,18.20
2013,08,25,09,55,18.20
2013,08,25,09,56,18.20
2013,08,25,09,57,18.20
2013,08,25,09,58,18.20
2013,08,25,09,59,18.30
2013,08,25,10,00,18.30
2013,08,25,10,01,18.20
2013,08,25,10,02,18.20
2013,08,25,10,03,18.20
2013,08,25,10,04,18.20
2013,08,25,10,05,18.20
2013,08,25,10,06,18.20
2013,08,25,10,07,18.20
2013,08,25,10,08,18.20
2013,08,25,10,09,18.20
2013,08,25,10,10,18.30
2013,08,25,10,11,18.30
2013,08,25,10,12,18.40
2013,08,25,10,13,18.40
2013,08,25,10,14,18.40
2013,08,25,10,15,18.50
2013,08,25,10,16,18.50
2013,08,25,10,17,18.60
2013,08,25,10,18,18.60
2013,08,25,10,19,18.60
2013,08,25,10,20,18.60
2013,08,25,10,21,18.50
2013,08,25,10,22,18.50
2013,08,25,10,23,18.60
2013,08,25,10,24,18.60
2013,08,25,10,25,18.60
2013,08,25,10,26,18.60
2013,08,25,10,27,18.70
2013,08,25,10,28,18.70
2013,08,25,10,29,18.70
2013,08,25,10,30,18.70
2013,08,25,10,31,18.70
2013,08,25,10,32,18.80
2013,08,25,10,33,18.80
2013,08,25,10,34,18.80
2013,08,25,10,35,18.90
2013,08,25,10,36,18.90
2013,08,25,10,37,18.90
2013,08,25,10,38,18.90
2013,08,25,10,39,18.90
2013,08,25,10,40,18.90
2013,08,25,10,41,18.90
2013,08,25,10,42,18.90
2013,08,25,10,43,18.80
2013,08,25,10,44,18.80
2013,08,25,10,45,18.70
2013,08,25,10,46,18.60
2013,08,25,10,47,18.60
2013,08,25,10,48,18.60
2013,08,25,10,49,18.60
2013,08,25,10,50,18.60
2013,08,25,10,51,18.70
2013,08,25,10,52,18.70
2013,08,25,10,53,18.70
2013,08,25,10,54,18.80
2013,08,25,10,55,18.90
2013,08,25,10,56,18.90
2013,08,25,10,57,18.90
2013,08,25,10,58,19.00
2013,08,25,10,59,19.10
2013,08,25,11,00,19.10
2013,08,25,11,01,19.10
2013,08,25,11,02,19.10
2013,08,25,11,03,19.20
2013,08,25,11,04,19.30
2013,08,25,11,05,19.30
2013,08,25,11,06,19.30
2013,08,25,11,07,19.30
2013,08,25,11,08,19.30
2013,08,25,11,09,19.30
2013,08,25,11,10,19.20
2013,08,25,11,11,19.20
2013,08,25,11,12,19.10
2013,08,25,11,13,19.10
2013,08,25,11,14,19.10
2013,08,25,11,15,19.10
2013,08,25,11,16,19.10
2013,08,25,11,17,19.20
2013,08,25,11,18,19.20
2013,08,25,11,19,19.20
2013,08,25,11,20,19.20
2013,08,25,11,21,19.20
2013,08,25,11,22,19.10
2013,08,25,11,23,19.10
2013,08,25,11,24,19.10
2013,08,25,11,25,19.20
2013,08,25,11,26,19.20
2013,08,25,11,27,19.20
2013,08,25,11,28,19.20
2013,08,25,11,29,19.30
2013,08,25,11,30,19.30
2013,08,25,11,31,19.40
2013,08,25,11,32,19.50
2013,08,25,11,33,19.50
2013,08,25,11,34,19.60
2013,08,25,11,35,19.60
2013,08,25,11,36,19.60
2013,08,25,11,37,19.70
2013,08,25,11,38,19.70
2013,08,25,11,39,19.80
2013,08,25,11,40,19.80
2013,08,25,11,41,19.80
2013,08,25,11,42,19.80
2013,08,25,11,43,19.90
2013,08,25,11,44,19.90
2013,08,25,11,45,19.90
2013,08,25,11,46,20.00
2013,08,25,11,47,20.10
2013,08,25,11,48,20.00
2013,08,25,11,49,19.90
2013,08,25,11,50,19.90
2013,08,25,11,51,20.10
2013,08,25,11,52,20.10
2013,08,25,11,53,20.20
2013,08,25,11,54,20.20
2013,08,25,11,55,20.20
2013,08,25,11,56,20.20
2013,08,25,11,57,20.20
2013,08,25,11,58,20.20
2013,08,25,11,59,20.30
2013,08,25,12,00,20.30
2013,08,25,12,01,20.30
2013,08,25,12,02,20.30
2013,08,25,12,03,20.30
2013,08,25,12,04,20.30
2013,08,25,12,05,20.30
2013,08,25,12,06,20.20
2013,08,25,12,07,20.30
2013,08,25,12,08,20.30
2013,08,25,12,09,20.40
2013,08,25,12,10,20.40
2013,08,25,12,11,20.50
2013,08,25,12,12,20.40
2013,08,25,12,13,20.50
2013,08,25,12,14,20.50
2013,08,25,12,15,20.60
2013,08,25,12,16,20.70
2013,08,25,12,17,20.80
2013,08,25,12,18,20.90
2013,08,25,12,19,21.00
2013,08,25,12,20,21.00
2013,08,25,12,21,21.10
2013,08,25,12,22,21.10
2013,08,25,12,23,21.10
2013,08,25,12,24,21.10
2013,08,25,12,25,21.10
2013,08,25,12,26,21.10
2013,08,25,12,27,21.20
2013,08,25,12,28,21.20
2013,08,25,12,29,21.30
2013,08,25,12,30,21.30
2013,08,25,12,31,21.30
2013,08,25,12,32,21.40
2013,08,25,12,33,21.40
2013,08,25,12,34,21.50
2013,08,25,12,35,21.60
2013,08,25,12,36,21.60
2013,08,25,12,37,21.70
2013,08,25,12,38,21.70
2013,08,25,12,39,21.70
2013,08,25,12,40,21.80
2013,08,25,12,41,21.80
2013,08,25,12,42,21.80
2013,08,25,12,43,21.80
2013,08,25,12,44,21.60
2013,08,25,12,45,21.60
2013,08,25,12,46,21.60
2013,08,25,12,47,21.60
2013,08,25,12,48,21.60
2013,08,25,12,49,21.60
2013,08,25,12,50,21.70
2013,08,25,12,51,21.80
2013,08,25,12,52,21.80
2013,08,25,12,53,21.80
2013,08,25,12,54,21.90
2013,08,25,12,55,21.90
2013,08,25,12,56,21.90
2013,08,25,12,57,21.90
2013,08,25,12,58,21.80
2013,08,25,12,59,21.80
2013,08,25,13,00,21.70
2013,08,25,13,01,21.70
2013,08,25,13,02,21.70
2013,08,25,13,03,21.70
2013,08,25,13,04,21.70
2013,08,25,13,05,21.70
2013,08,25,13,06,21.70
2013,08,25,13,07,21.80
2013,08,25,13,08,21.90
2013,08,25,13,09,21.90
2013,08,25,13,10,22.00
2013,08,25,13,11,22.00
2013,08,25,13,12,22.00
2013,08,25,13,13,21.90
2013,08,25,13,14,21.90
2013,08,25,13,15,22.00
2013,08,25,13,16,22.00
2013,08,25,13,17,22.00
2013,08,25,13,18,21.90
2013,08,25,13,19,21.80
2013,08,25,13,20,21.60
2013,08,25,13,21,21.40
2013,08,25,13,22,21.30
2013,08,25,13,23,21.10
2013,08,25,13,24,21.10
2013,08,25,13,25,20.90
2013,08,25,13,26,20.90
2013,08,25,13,27,20.90
2013,08,25,13,28,20.90
2013,08,25,13,29,20.80
2013,08,25,13,30,20.80
2013,08,25,13,31,20.90
2013,08,25,13,32,21.00
2013,08,25,13,33,20.90
2013,08,25,13,34,20.70
2013,08,25,13,35,20.60
2013,08,25,13,36,20.60
2013,08,25,13,37,20.50
2013,08,25,13,38,20.50
2013,08,25,13,39,20.60
2013,08,25,13,40,20.70
2013,08,25,13,41,20.80
2013,08,25,13,42,20.80
2013,08,25,13,43,20.90
2013,08,25,13,44,20.90
2013,08,25,13,45,21.00
2013,08,25,13,46,21.00
2013,08,25,13,47,21.00
2013,08,25,13,48,21.00
2013,08,25,13,49,21.00
2013,08,25,13,50,20.90
2013,08,25,13,51,20.90
2013,08,25,13,52,20.80
2013,08,25,13,53,20.70
2013,08,25,13,54,20.60
2013,08,25,13,55,20.60
2013,08,25,13,56,20.60
2013,08,25,13,57,20.60
2013,08,25,13,58,20.50
2013,08,25,13,59,20.50
2013,08,25,14,00,20.50
2013,08,25,14,01,20.50
2013,08,25,14,02,20.50
2013,08,25,14,03,20.50
2013,08,25,14,04,20.60
2013,08,25,14,05,20.60
2013,08,25,14,06,20.60
2013,08,25,14,07,20.50
2013,08,25,14,08,20.50
2013,08,25,14,09,20.50
2013,08,25,14,10,20.50
2013,08,25,14,11,20.40
2013,08,25,14,12,20.50
2013,08,25,14,13,20.60
2013,08,25,14,14,20.60
2013,08,25,14,15,20.70
2013,08,25,14,16,20.80
2013,08,25,14,17,20.80
2013,08,25,14,18,20.70
2013,08,25,14,19,20.70
2013,08,25,14,20,20.70
2013,08,25,14,21,20.80
2013,08,25,14,22,20.90
2013,08,25,14,23,20.90
2013,08,25,14,24,21.00
2013,08,25,14,25,21.00
2013,08,25,14,26,21.10
2013,08,25,14,27,21.10
2013,08,25,14,28,21.20
2013,08,25,14,29,21.20
2013,08,25,14,30,21.30
2013,08,25,14,31,21.40
2013,08,25,14,32,21.50
2013,08,25,14,33,21.60
2013,08,25,14,34,21.70
2013,08,25,14,35,21.80
2013,08,25,14,36,21.90
2013,08,25,14,37,21.90
2013,08,25,14,38,22.00
2013,08,25,14,39,22.10
2013,08,25,14,40,22.10
2013,08,25,14,41,22.10
2013,08,25,14,42,22.00
2013,08,25,14,43,22.00
2013,08,25,14,44,22.00
2013,08,25,14,45,21.80
2013,08,25,14,46,21.80
2013,08,25,14,47,21.80
2013,08,25,14,48,21.90
2013,08,25,14,49,21.90
2013,08,25,14,50,21.80
2013,08,25,14,51,21.70
2013,08,25,14,52,21.70
2013,08,25,14,53,21.70
2013,08,25,14,54,21.70
2013,08,25,14,55,21.70
2013,08,25,14,56,21.70
2013,08,25,14,57,21.70
2013,08,25,14,58,21.90
2013,08,25,14,59,21.90
2013,08,25,15,00,21.90
2013,08,25,15,01,21.90
2013,08,25,15,02,21.90
2013,08,25,15,03,21.90
2013,08,25,15,04,21.90
2013,08,25,15,05,22.00
2013,08,25,15,06,22.10
2013,08,25,15,07,22.20
2013,08,25,15,08,22.10
2013,08,25,15,09,22.00
2013,08,25,15,10,22.00
2013,08,25,15,11,22.00
2013,08,25,15,12,22.10
2013,08,25,15,13,22.10
2013,08,25,15,14,22.20
2013,08,25,15,15,22.20
2013,08,25,15,16,22.30
2013,08,25,15,17,22.30
2013,08,25,15,18,22.40
2013,08,25,15,19,22.50
2013,08,25,15,20,22.40
2013,08,25,15,21,22.30
2013,08,25,15,22,22.20
2013,08,25,15,23,22.00
2013,08,25,15,24,22.00
2013,08,25,15,25,21.90
2013,08,25,15,26,21.90
2013,08,25,15,27,21.90
2013,08,25,15,28,21.90
2013,08,25,15,29,21.90
2013,08,25,15,30,21.90
2013,08,25,15,31,21.70
2013,08,25,15,32,21.60
2013,08,25,15,33,21.60
2013,08,25,15,34,21.60
2013,08,25,15,35,21.60
2013,08,25,15,36,21.60
2013,08,25,15,37,21.60
2013,08,25,15,38,21.60
2013,08,25,15,39,21.60
2013,08,25,15,40,21.50
2013,08,25,15,41,21.40
2013,08,25,15,42,21.40
2013,08,25,15,43,21.30
2013,08,25,15,44,21.30
2013,08,25,15,45,21.30
2013,08,25,15,46,21.30
2013,08,25,15,47,21.40
2013,08,25,15,48,21.50
2013,08,25,15,49,21.50
2013,08,25,15,50,21.40
2013,08,25,15,51,21.40
2013,08,25,15,52,21.50
2013,08,25,15,53,21.60
2013,08,25,15,54,21.60
2013,08,25,15,55,21.50
2013,08,25,15,56,21.40
2013,08,25,15,57,21.50
2013,08,25,15,58,21.50
2013,08,25,15,59,21.40
2013,08,25,16,00,21.40
2013,08,25,16,01,21.30
2013,08,25,16,02,21.30
2013,08,25,16,03,21.20
2013,08,25,16,04,21.20
2013,08,25,16,05,21.10
2013,08,25,16,06,21.00
2013,08,25,16,07,20.80
2013,08,25,16,08,20.70
2013,08,25,16,09,20.60
2013,08,25,16,10,20.60
2013,08,25,16,11,20.60
2013,08,25,16,12,20.70
2013,08,25,16,13,20.70
2013,08,25,16,14,20.70
2013,08,25,16,15,20.80
2013,08,25,16,16,20.80
2013,08,25,16,17,20.70
2013,08,25,16,18,20.60
2013,08,25,16,19,20.60
2013,08,25,16,20,20.60
2013,08,25,16,21,20.60
2013,08,25,16,22,20.60
2013,08,25,16,23,20.60
2013,08,25,16,24,20.70
2013,08,25,16,25,20.70
2013,08,25,16,26,20.70
2013,08,25,16,27,20.60
2013,08,25,16,28,20.60
2013,08,25,16,29,20.50
2013,08,25,16,30,20.50
2013,08,25,16,31,20.30
2013,08,25,16,32,20.20
2013,08,25,16,33,20.10
2013,08,25,16,34,20.00
2013,08,25,16,35,19.90
2013,08,25,16,36,19.90
2013,08,25,16,37,19.90
2013,08,25,16,38,20.00
2013,08,25,16,39,20.10
2013,08,25,16,40,20.20
2013,08,25,16,41,20.10
2013,08,25,16,42,20.10
2013,08,25,16,43,20.00
2013,08,25,16,44,19.90
2013,08,25,16,45,19.90
2013,08,25,16,46,19.90
2013,08,25,16,47,19.80
2013,08,25,16,48,19.80
2013,08,25,16,49,19.80
2013,08,25,16,50,19.80
2013,08,25,16,51,19.80
2013,08,25,16,52,19.80
2013,08,25,16,53,19.90
2013,08,25,16,54,19.90
2013,08,25,16,55,19.90
2013,08,25,16,56,19.90
2013,08,25,16,57,19.90
2013,08,25,16,58,19.90
2013,08,25,16,59,19.90
2013,08,25,17,00,20.00
2013,08,25,17,01,20.10
2013,08,25,17,02,20.10
2013,08,25,17,03,20.00
2013,08,25,17,04,19.90
2013,08,25,17,05,19.90
2013,08,25,17,06,19.90
2013,08,25,17,07,19.90
2013,08,25,17,08,20.10
2013,08,25,17,09,20.10
2013,08,25,17,10,20.10
2013,08,25,17,11,20.10
2013,08,25,17,12,20.10
2013,08,25,17,13,20.10
2013,08,25,17,14,20.10
2013,08,25,17,15,20.20
2013,08,25,17,16,20.10
2013,08,25,17,17,20.10
2013,08,25,17,18,20.10
2013,08,25,17,19,20.00